www.pogodaiklimat.ru

Погода и климат >> Архив погоды >> Пакистан >> Дера Гази Хан


ПОГОДА в Дера Гази Хан

  • Прогноз погоды в Дера Гази Хан
  • Монитор погоды в Дера Гази Хан

АРХИВ ПОГОДЫ в Дера Гази Хан

Время (UTC), дата Ветер
(напр.,м/с)
 
Видим.   Явления Облачность Т
(С)
Тd
(С)
f
(%)
Тe
(С)
Тes
(С)
Комфортность P
(гПа)
Po
(гПа)
Тmin
(С)
Tmax
(С)
R
(мм)
R24
(мм)
S
(см)
15 9.06 штиль 0 4000 м ясно +40.0 +22.2 36 +48 +48 опасность
перегрева
997.0 983.7
18 9.06 штиль 0 4000 м ясно +34.0 +18.9 41 +39 +39 очень
душно
997.3 980.1
21 9.06 штиль 0 4000 м ясно +30.0 +17.5 47 +34 +34 очень
душно
996.3 982.6
00 10.06 штиль 0 4000 м ясно +28.0 +16.9 51 +32 +32 душно 995.9 978.7
03 10.06 СВ 1 4000 м ясно +30.0 +17.5 47 +34 +42 очень
душно
997.0 979.9 +26.8
06 10.06 ЮВ 2 4000 м ясно +40.0 +19.3 30 +44 +64 опасность
перегрева
998.0 984.7
09 10.06 ЮВ 6 4000 м 3/0
[Ac trans]
+45.0 +20.6 25 +50 +56 опасность
перегрева
995.1 982.0
12 10.06 Ю 7 4000 м 3/0
[Ac trans]
+46.0 +22.0 26 +53 +54 опасность
перегрева
993.0 975.9 +47.5
15 10.06 Ю 4 4000 м ясно +40.0 +21.3 34 +47 +47 опасность
перегрева
994.0 980.7
18 10.06 ЮВ 3 4000 м ясно +36.0 +19.7 39 +42 +42 опасность
перегрева
994.8 977.6
21 10.06 Ю 4 4000 м ясно +33.0 +18.5 42 +38 +38 очень
душно
993.5 980.0
00 11.06 Ю 3 4000 м 4/0
[Ac trans]
+31.0 +18.8 48 +36 +36 очень
душно
993.2 976.1
03 11.06 СВ 2 4000 м ясно +33.0 +19.5 45 +39 +45 очень
душно
995.8 978.6 +28.7
06 11.06 В 3 4000 м мгла ясно +37.5 +17.8 32 +41 +57 опасность
перегрева
997.0 983.6
09 11.06 ЮВ 4 4000 м ясно +40.5 +19.0 29 +45 +57 опасность
перегрева
994.8 981.6
12 11.06 В 3 4000 м 3/0
[Ac trans]
+40.5 +19.0 29 +45 +48 опасность
перегрева
992.8 975.7 +42.5
15 11.06 ЮВ 4 4000 м мгла ясно +37.0 +19.1 35 +42 +42 опасность
перегрева
993.4 980.0
18 11.06 Ю 3 4000 м ясно +34.0 +18.9 41 +39 +39 очень
душно
994.0 976.9
21 11.06 Ю 4 4000 м ясно +32.5 +18.9 45 +38 +38 очень
душно
993.0 979.4
00 12.06 ЮВ 4 4000 м 3/0
[Ac trans]
+31.5 +19.4 49 +37 +37 очень
душно
993.2 976.1
03 12.06 СВ 9 2000 м пыльный позёмок ясно +34.5 +18.6 39 +39 +40 очень
душно
998.0 980.8 +30.7
06 12.06 СВ 7 4000 м ясно +37.0 +18.1 33 +41 +46 опасность
перегрева
999.3 985.8
09 12.06 СВ 8 4000 м ясно +38.5 +18.2 31 +42 +45 опасность
перегрева
997.9 984.5
12 12.06 В 4 4000 м ясно +37.0 +18.1 33 +41 +44 опасность
перегрева
996.8 979.7 +39.2
15 12.06 СВ 3 4000 м ясно +35.0 +17.3 35 +38 +38 очень
душно
998.0 984.5
18 12.06 штиль 0 4000 м ясно +33.0 +17.6 40 +37 +37 очень
душно
998.8 981.6
21 12.06 В 2 4000 м ясно +31.0 +17.9 46 +35 +35 очень
душно
997.9 984.2
00 13.06 штиль 0 4000 м ясно +28.5 +16.6 49 +32 +32 душно 998.4 981.2
03 13.06 штиль 0 4000 м ясно +32.0 +15.2 36 +34 +43 душно 1001.5 984.2 +26.5
06 13.06 С 1 4000 м ясно +38.0 +15.3 26 +39 +63 опасность
солнечного
удара
1002.2 988.8
09 13.06 СВ 2 4000 м ясно +41.0 +15.5 23 +42 +61 опасность
перегрева
1000.0 986.7
12 13.06 СВ 2 4000 м ясно +41.0 +14.3 21 +42 +46 опасность
перегрева
998.1 980.9 +42.0
15 13.06 штиль 0 4000 м ясно +36.0 +12.0 24 +36 +36 очень
жарко
999.0 985.5
18 13.06 СВ 2 4000 м ясно +33.0 +12.1 28 +33 +33 жарко 982.1
21 13.06 штиль 0 4000 м ясно +30.5 +11.8 32 +31 +31 жарко 998.6 984.9
00 14.06 штиль 0 4000 м ясно +28.5 +11.2 34 +29 +29 жарко 998.6 981.4
03 14.06 штиль 0 4000 м мгла ясно +31.0 +13.8 35 +32 +41 жарко 999.8 982.6 +28.0
06 14.06 ЮВ 3 4000 м мгла ясно +37.0 +18.1 33 +41 +57 опасность
перегрева
1000.3 986.8
09 14.06 ЮВ 3 4000 м мгла ясно +41.0 +18.8 28 +45 +60 опасность
перегрева
997.7 984.4
12 14.06 ЮВ 2 4000 м мгла 4/4 1200 м
[Sc]
+42.5 +16.7 23 +45 +48 опасность
перегрева
995.1 977.9 +44.1
15 14.06 ЮВ 2 4000 м мгла 5/5 1200 м
[Sc]
+38.0 +14.1 24 +38 +38 очень
жарко
996.1 982.7
18 14.06 ЮВ 3 4000 м мгла ясно +34.0 +13.7 29 +35 +35 очень
жарко
997.3 980.1
21 14.06 Ю 2 4000 м мгла ясно +32.0 +12.9 31 +33 +33 жарко 996.2 982.6
00 15.06 Ю 4 4000 м мгла ясно +28.0 +12.8 39 +29 +29 жарко 996.2 979.1
03 15.06 Ю 3 4000 м ясно +32.5 +15.9 37 +35 +41 душно 997.2 980.0 +27.4
09 15.06 ЮВ 5 4000 м мгла 4/4 1200 м
[Sc]
+43.5 +20.4 27 +49 +55 опасность
перегрева
994.7 981.6
12 15.06 ЮВ 4 4000 м 9/4 1200 м
[Sc Ac trans]
+39.5 +20.6 34 +46 +47 опасность
перегрева
992.9 975.8 +45.0 0.0
15 15.06 ЮВ 2 4000 м {дождь} 5/5 1200 м
[Sc]
+34.0 +21.6 48 +42 +42 опасность
перегрева
994.7 981.2 1
18 15.06 СЗ 2 4000 м ясно +32.0 +20.9 52 +39 +39 очень
душно
996.0 978.8 1
21 15.06 З 2 4000 м ясно +31.0 +19.7 51 +37 +37 очень
душно
995.1 981.4
00 16.06 СВ 3 4000 м ясно +29.0 +19.1 55 +34 +34 очень
душно
995.0 977.8
03 16.06 СВ 2 4000 м мгла ясно +32.0 +20.0 49 +38 +45 очень
душно
1000.7 983.5 +28.6
06 16.06 СВ 3 4000 м мгла ясно +36.5 +20.6 40 +43 +59 опасность
перегрева
1001.7 988.2
12 16.06 СВ 4 4000 м мгла 9/5 1200 м
[Sc Ac trans]
+38.5 +21.1 37 +45 +46 опасность
перегрева
997.3 980.1 +40.4

 

Местоположение метеостанции Дера Гази Хан (Пакистан): широта 30.05 долгота 70.63 высота над уровнем моря 123 м.

В архиве по умолчанию представлена погода в Дера Гази Хан за последнюю неделю. Архивные данные за месяц целиком и за предыдущие месяцы, начиная с января 2011 года, Вы можете получить, выбрав интересующий диапазон дат из раскрывающегося списка и нажав кнопку "Ввод!".


*Определитесь, кто Вы:
робот инопланетянин человек

Внимание! Время в таблицах - всемирное. Для получения местного времени необходимо прибавить поправку, которая равна 5 ч.

Смотрите также архив погоды в соседних городах и на ближайших метеорологических станциях:

Погода в Кот Адду (Пакистан) (54 км)
Погода в Мултане (Пакистан) (79 км)
Погода в Бархане (Пакистан) (90 км)
Погода в Леяхе (Пакистан) (113 км)
Погода в Ханевале (Пакистан) (125 км)
Погода в Бахавалпуре (Пакистан) (133 км)
Погода а Бахавалпур аэропорту (Пакистан) (133 км)
Погода в Ханпуре (Пакистан) (156 км)
Погода на Авиабазе Raifiqui (Пакистан) (171 км)
Погода в Бхаккаре (Пакистан) (180 км)

Пояснения к столбцам:

Ветер - указаны скорость ветра в м/с - средняя за 10 мин, порывы в срок и между сроками (в фигурных скобках) и направление, откуда дует ветер: С - северный, СВ - северо-восточный, В - восточный, ЮВ - юго-восточный, Ю - южный, ЮЗ - юго-западный, З - западный, СЗ - северо-западный.
Видимость - горизонтальная дальность видимости в метрах или километрах. При видимости от 1 до 10 км при отсутствии осадков обычно наблюдается дымка, при ухудшении видимости до 1 км и менее - туман. В сухую погоду видимость может ухудшаться дымом, пылью или мглою.
Явления - указаны атмосферные явления, наблюдавшиеся в срок или в последний час перед сроком; фигурными скобками обозначены явления, наблюдавшиеся между сроками (за 1-3 часа до срока); квадратными скобками обозначены град или гололедные отложения с указанием их диаметра в мм.
Облачность - указаны через наклонную черту общая и нижняя облачность в баллах и высота нижней границы облаков в метрах; квадратными скобками обозначены формы облаков: Ci - перистые, Cs - перисто-слоистые, Cc - перисто-кучевые, Ac - высококучевые, As - высокослоистые, Sc - слоисто-кучевые, Ns - слоисто-дождевые, Cu - кучевые, Cb - кучево-дождевые. Подробнее классификацию облаков см. в Атласе облаков (PDF).
T - Температура воздуха - температура, измеренная на высоте 2 м над землей.
Td - Температура точки росы - температура, при понижении до которой содержащийся в воздухе водяной пар достигнет насыщения.
f - Относительная влажность воздуха - влажноcть воздуха, измеренная на высоте 2 м над землей.
Te - Эффективная температура - температура, которую ощущает одетый по сезону человек в тени. Характеристика душности погоды. При расчете учитывается влияние влажности воздуха и скорости ветра на теплоощущения человека.
Tes - Эффективная температура на солнце - температура, которую ощущает человек, с поправкой на солнечный нагрев. Характеристика знойности погоды. Зависит от высоты солнца над горизонтом, облачности и скорости ветра. Ночью, в пасмурную погоду, а также при ветре 12 м/с и более поправка равна нулю.
P - Атмосферное давление - приведенное к уровню моря атмосферное давление.
Po - Атмосферное давление - измеренное на уровне метеостанции атмосферное давление.
Tmin - Минимальная температура - минимум температуры воздуха на высоте 2 м над землей.
Tmax - Максимальная температура - максимум температуры воздуха на высоте 2 м над землей.
R - Количество осадков - Количество выпавших осадков за период времени, мм. При наведении курсора мыши на число - период времени, за который выпало указанное количество осадков.
R24 - Количество осадков - Количество выпавших осадков за 24 часа, мм.
S - Снежный покров - Высота снежного покрова, см. При наведении курсора мыши на число - состояние снежного покрова и степень покрытия местности в баллах.